Voltar ao catálogo

NAVSTAR 73

USA 260

AtivoNavegaçãoHEO
NORAD 40534·PAYLOAD·🇺🇸 United States

Lançado Mar 25, 2015 de Cape Canaveral Space Force Station

Loading…

Próximas Passagens (próximas 24 horas)

TLE

AtualizadoSource: CelesTrak SupGP

Época: Sep 17, 2026, 16:38 UTC

1 40534C 15013A   26260.69312500  .00000000  00000+0  00000+0 0  2607
2 40534  53.1576 200.3544 0113152  41.1726 245.0113  2.00570553    11

Acompanhe NAVSTAR 73 em tempo real com AllMySat

Download on the App Store